This is the latest recevied weather packets stored in our database for station/object NW5W-12. If no packets are shown the sender has not sent any weather packets the latest 10 day(s).
| Time | Temp. | Humidity | Pressure | Rain* | Wind** | Luminosity | Snow |
|---|---|---|---|---|---|---|---|
| 1777398530 | 5.56° C | 75% | 1020.6 hPa | 11.94 mm | - | - | - |
| 1777398231 | 5.56° C | 77% | 1020.6 hPa | 11.94 mm | - | - | - |
| 1777397630 | 5.56° C | 76% | 1020.5 hPa | 10.92 mm | - | - | - |
| 1777397331 | 6.11° C | 71% | 1020.5 hPa | 10.67 mm | - | - | - |
| 1777396731 | 6.11° C | 74% | 1020.5 hPa | 9.4 mm | - | - | - |
| 1777396430 | 6.67° C | 79% | 1020.5 hPa | 8.89 mm | - | - | - |
| 1777395831 | 5.56° C | 81% | 1020.5 hPa | 6.6 mm | - | - | - |
| 1777395531 | 5.56° C | 84% | 1020.5 hPa | 6.1 mm | - | - | - |
| 1777395231 | 5.56° C | 84% | 1020.4 hPa | 5.59 mm | - | - | - |
| 1777394931 | 5.56° C | 81% | 1020.4 hPa | 4.57 mm | - | - | - |
| 1777394631 | 5° C | 85% | 1020.3 hPa | 4.06 mm | - | - | - |
| 1777394331 | 5° C | 81% | 1020.3 hPa | 3.3 mm | - | - | - |
| 1777394031 | 5° C | 81% | 1020.3 hPa | 2.79 mm | - | - | - |
| 1777393731 | 5° C | 84% | 1020.2 hPa | 1.78 mm | - | - | - |
| 1777393431 | 4.44° C | 87% | 1020.2 hPa | 1.52 mm | - | - | - |
| 1777393131 | 4.44° C | 89% | 1020.2 hPa | 1.02 mm | - | - | - |
| 1777392831 | 4.44° C | 91% | 1020.2 hPa | 1.02 mm | - | - | - |
| 1777392531 | 3.89° C | 93% | 1020.2 hPa | 0.51 mm | - | - | - |
| 1777392230 | 3.89° C | 97% | 1020.1 hPa | 0 mm | - | - | - |
| 1777391930 | 3.89° C | 10% | - | 0 mm | - | - | - |
| 1777391631 | 3.33° C | 10% | - | 0 mm | - | - | - |
| 1777391331 | 3.33° C | 10% | - | 0 mm | - | - | - |
| 1777391030 | 3.33° C | 10% | - | 0 mm | - | - | - |
| 1777390731 | 3.33° C | 10% | - | 0 mm | - | - | - |
| 1777390431 | 2.78° C | 10% | - | 0 mm | - | - | - |
* Rain since midnight (hover to see other rain measurements)
** Current wind speed in m/s (hover to see current wind gust speed)